CSS (TIANHE) (48274 NORAD) Tracking and Keplerian Element Data

This shows tracking and keplerian element data for the satellite.

Feedback or suggestion? Click here.




ElementValue
Catalog48274
NameCSS (TIANHE)
Epoch Orbit17769
Epoch Day160.21303635
Epoch Year2024
RAAN137.8107
Inclination41.4671
Eccentricity0.0002244
Argument of Perigee192.6527
Mean Anonmoly167.4256
Mean Motion15.61525066
Decay Rate0.00023498
L11 48274U 21035A 24160.21303635 .00023498 00000+0 26947-3 0 9998
L22 48274 41.4671 137.8107 0002244 192.6527 167.4256 15.61525066177699



Live tracking and technical data element details for CSS (TIANHE) (NORAD 48274). CSS (TIANHE) can be tracked NOW for your location showing map with azimuth and elevation plus other details from your city location.







IsCatalogInMostPopularTable: catalog: 48274, numindb: 3757
Update: records affected: 1



GetName: 48274 CSS (TIANHE)

Hit Count: updated at: Tue, 17 Sep 2024 11:29:29 GMT